Theta_e
344 343 344 349 349 347 349 349 347 347 347 347 348 349 349 351 351 348 347 348 345 346 345 346 345 344 344 345 347 343 341 339 332 334 341 341 340 340 345 346 349 349 353
343 344 345 348 347 349 350 350 349 346 346 344 343 343 343 345 349 350 348 349 346 344 345 344 345 347 342 345 344 341 343 341 339 336 337 340 342 345 346 344 349 354 351
342 342 342 343 348 348 349 350 350 345 345 344 339 334 332 339 347 350 350 350 349 347 345 345 346 346 344 343 343 341 342 345 343 341 340 343 343 344 343 345 346 345 348
342 340 339 342 342 342 344 348 349 350 347 346 346 343 342 346 349 351 350 347 347 349 349 350 348 348 346 345 344 344 342 342 341 340 339 340 340 344 343 342 343 342 344
339 339 339 340 342 338 340 342 345 349 350 351 350 350 350 353 354 350 352 350 347 346 348 349 351 351 347 345 348 346 345 343 342 341 340 340 340 339 339 342 340 341 340
334 335 338 337 337 338 339 340 341 341 347 350 351 349 348 353 344 339 348 350 351 349 347 348 349 349 347 341 340 342 346 345 342 340 339 338 338 338 340 341 338 337 334
328 330 332 332 332 332 333 334 335 336 339 340 345 348 348 350 337 333 337 343 348 349 350 349 349 353 347 351 344 338 336 336 340 342 339 338 337 338 338 336 337 338 338
327 329 331 332 331 331 331 331 331 334 336 338 339 341 343 350 335 331 334 340 341 341 346 349 350 351 349 348 347 347 348 346 341 340 343 345 343 345 338 340 338 340 343
317 320 324 326 326 330 329 330 331 331 332 333 337 338 340 342 330 326 331 344 343 343 344 345 348 350 341 334 344 346 346 346 343 332 333 333 333 332 336 343 340 338 340
313 316 317 319 320 322 323 325 329 330 332 334 334 336 334 340 323 321 327 341 341 344 346 347 334 340 331 328 343 347 346 347 348 348 350 339 333 339 330 340 345 340 340
313 314 315 314 316 317 318 320 323 322 322 325 330 334 338 334 328 317 319 336 336 339 344 347 344 319 315 315 316 329 336 337 336 338 343 348 349 346 346 343 344 345 343
309 309 310 313 314 316 314 315 315 315 317 319 326 329 334 333 321 317 316 319 325 328 330 335 335 318 314 317 319 323 318 320 329 334 336 339 342 344 348 350 349 347 349
304 304 306 307 308 310 310 311 313 314 314 314 313 315 316 319 327 315 316 317 320 325 330 327 317 315 314 318 321 320 320 330 332 330 334 337 340 344 346 346 346 348 350
301 301 303 303 303 304 308 309 309 308 308 308 308 309 311 313 315 317 321 316 317 321 324 324 322 318 317 320 323 331 334 336 338 339 341 344 345 342 341 343 342 343 343
300 300 300 300 300 302 305 305 307 307 303 304 305 305 306 308 311 307 306 312 309 308 307 316 321 325 326 330 333 336 338 341 342 343 342 343 343 342 340 342 342 342 340
298 299 299 298 299 300 300 302 304 303 302 300 298 300 306 304 300 299 297 297 297 300 310 314 317 321 321 323 326 329 333 335 339 343 342 341 341 343 342 343 343 342 341
297 298 297 297 297 297 298 298 298 302 302 300 299 299 299 298 298 297 296 295 297 300 309 314 316 321 322 324 326 330 332 335 337 338 340 342 344 343 341 343 344 343 343
295 300 295 295 295 296 296 297 298 298 298 300 301 300 300 298 297 297 295 300 307 306 310 314 317 321 325 322 318 318 319 320 322 325 328 332 339 344 344 344 344 343 343
294 294 295 294 294 297 295 296 297 297 297 298 299 299 300 299 298 297 296 302 305 309 313 317 321 320 315 312 312 312 312 313 315 317 320 324 331 339 341 343 343 326 330
294 300 297 292 292 292 293 293 293 293 293 294 295 296 298 298 297 299 301 302 304 309 312 311 310 309 310 309 309 308 308 309 311 313 313 317 321 330 337 341 341 339 336
292 292 296 291 290 290 290 290 291 291 291 291 292 294 295 295 295 297 298 300 303 307 308 309 309 309 308 306 306 305 305 306 308 309 311 313 318 319 321 329 339 342 342
291 291 290 289 289 290 289 289 289 290 290 290 290 292 293 293 293 295 297 297 299 301 304 307 307 305 304 302 303 303 303 302 303 305 307 308 309 311 315 321 328 336 335
291 291 290 289 289 291 288 288 289 291 290 290 290 290 290 291 292 293 294 296 297 299 303 305 304 302 302 302 301 302 300 300 301 302 301 301 303 305 307 312 319 327 333
291 291 290 289 289 289 288 287 288 290 290 290 289 289 290 290 290 290 292 294 296 297 299 300 301 300 298 299 299 299 299 299 299 298 296 295 296 298 302 307 313 322 328
291 290 290 289 289 288 288 287 287 290 289 288 288 289 289 289 288 289 291 292 293 294 296 298 298 298 298 297 297 296 294 290 292 291 291 291 292 295 298 302 308 315 323
291 291 290 290 289 288 287 286 286 287 288 288 287 288 288 288 288 288 289 290 291 292 293 294 295 296 296 295 294 291 287 285 287 286 288 290 291 294 299 303 308 313 319
Wind_Speed
4 2 4 7 7 6 6 6 6 5 6 6 6 6 6 6 6 5 5 5 4 5 4 3 4 3 2 1 1 1 1 2 2 4 3 3 3 4 7 6 5 6 5
5 5 5 5 5 6 6 6 6 7 6 6 6 6 6 6 5 6 6 5 5 5 6 5 6 3 4 2 1 2 1 2 3 2 2 3 3 3 4 6 6 5 5
5 7 7 5 4 6 6 6 6 6 7 6 6 7 7 7 6 6 6 6 6 6 6 6 7 4 5 3 3 4 2 1 1 2 3 2 3 2 4 3 3 5 5
3 2 6 8 7 5 4 4 4 7 7 7 7 7 7 6 6 6 6 6 6 6 7 6 7 6 7 6 5 6 4 3 2 2 3 3 2 3 1 2 5 2 5
5 3 5 3 5 5 8 8 5 4 6 7 7 7 7 7 6 7 6 7 7 7 7 7 7 8 10 9 4 6 5 3 3 3 3 2 3 2 3 2 3 3 4
5 5 5 5 8 7 9 9 8 6 6 5 7 6 5 5 9 10 7 6 7 7 8 7 7 8 9 11 11 12 9 6 5 4 3 4 5 4 3 3 2 3 4
8 9 9 8 6 7 8 7 7 6 4 5 5 1 4 5 8 8 8 5 6 7 8 7 7 7 8 7 9 10 10 13 10 6 7 6 5 5 3 3 4 3 4
9 9 6 5 6 6 3 2 5 4 6 6 7 5 4 4 6 8 8 6 6 7 7 7 7 8 7 8 7 7 7 7 7 7 10 12 9 9 6 5 4 4 4
10 9 7 6 5 2 4 5 4 6 5 6 6 7 6 5 7 8 8 4 5 7 6 7 8 9 10 11 7 9 9 9 8 13 14 14 14 13 5 2 5 3 7
7 7 7 7 7 6 6 6 4 3 4 4 6 5 7 6 10 10 5 4 4 4 5 7 11 11 11 11 8 9 11 11 7 7 7 7 12 11 12 10 8 7 6
8 7 7 6 6 5 5 3 4 5 6 6 6 5 4 6 6 8 10 5 4 4 4 5 4 8 5 4 3 5 10 7 10 6 6 7 7 6 7 8 9 9 7
7 8 9 9 8 8 7 6 7 6 5 6 6 5 3 3 2 5 7 5 4 3 4 4 4 8 12 15 7 10 11 7 4 5 6 8 9 9 9 8 10 11 11
7 7 7 7 8 8 7 9 8 9 7 6 5 5 5 4 3 3 2 6 7 4 4 6 10 13 15 10 14 13 10 5 5 4 7 9 8 9 11 9 6 10 11
5 5 5 5 7 6 5 5 5 6 8 8 8 9 8 6 6 5 4 4 6 6 6 6 9 11 13 11 9 7 5 6 7 8 9 9 9 8 10 9 9 8 7
6 5 5 4 5 5 5 4 5 5 2 5 4 4 5 8 10 10 8 7 4 4 7 4 3 4 6 7 7 7 6 5 6 6 8 9 9 9 10 8 8 8 8
4 4 4 4 5 4 4 6 3 6 11 6 4 3 6 6 10 16 18 15 10 7 2 4 5 5 7 6 7 8 7 7 7 7 6 7 9 9 10 8 6 7 9
5 5 3 4 3 4 4 4 8 7 6 10 12 13 9 8 12 14 15 13 11 3 4 6 6 5 8 7 6 7 7 7 9 8 9 9 8 9 9 10 9 7 10
5 8 4 4 4 4 4 5 5 7 10 9 7 10 14 14 13 13 11 11 9 2 5 7 7 5 4 3 5 6 9 10 10 10 10 11 11 12 10 9 8 10 9
4 3 4 5 5 6 5 7 7 8 8 9 9 8 8 10 14 13 6 4 8 8 9 8 6 2 3 4 4 6 8 8 9 10 10 11 12 13 10 9 9 11 9
3 8 7 4 4 4 4 5 6 7 8 8 8 9 10 12 10 10 9 9 9 7 4 6 5 3 4 5 6 6 7 9 8 8 10 11 11 12 13 11 9 9 9
3 3 6 3 3 3 4 4 5 6 7 8 9 10 15 11 11 11 10 10 9 9 6 5 5 3 2 3 5 8 10 10 9 9 9 10 11 11 13 13 11 8 8
5 4 3 2 1 2 3 3 4 6 7 9 9 10 17 10 10 10 11 12 11 11 10 9 6 4 5 4 5 7 8 11 10 9 10 10 10 11 11 12 12 11 8
5 5 4 3 2 2 1 3 3 5 7 10 11 11 11 10 10 11 11 12 13 12 11 8 7 7 5 6 6 7 9 9 10 9 10 10 10 10 10 12 12 11 10
5 5 4 3 2 2 3 4 4 6 8 8 9 9 10 10 11 13 13 12 12 12 11 10 11 10 8 9 9 9 8 8 7 8 12 12 12 12 11 12 13 14 13
6 5 5 4 4 4 4 4 4 6 7 8 9 8 9 9 10 12 12 12 12 12 12 11 9 12 14 15 12 12 12 14 12 13 10 13 16 17 14 13 14 14 15
6 6 5 5 5 5 5 4 5 4 6 7 9 9 9 10 10 11 11 12 12 12 14 12 13 15 15 11 12 13 10 14 16 16 11 11 13 12 11 14 18 14 16
Wind_Direction
80 59 241 207 197 200 195 218 202 195 193 191 184 187 193 197 222 224 219 236 258 277 279 269 280 261 299 342 37 84 109 132 148 301 262 261 292 318 327 310 307 309 309
96 80 351 257 208 209 223 190 194 198 202 187 193 207 209 206 217 216 224 231 235 258 261 277 272 279 295 297 294 284 183 156 146 251 268 295 278 329 310 343 337 346 343
57 65 42 12 269 229 227 213 172 210 204 194 183 209 222 220 213 212 218 229 234 240 243 245 268 285 284 283 275 283 282 275 204 215 281 278 279 1 342 333 331 326 324
116 55 77 24 12 20 41 0 235 198 209 199 200 210 212 220 217 222 215 227 241 244 241 244 244 233 240 254 256 260 255 271 258 242 267 276 264 313 295 272 324 309 310
122 115 81 66 59 26 14 351 335 256 222 215 202 205 213 214 218 209 216 220 223 242 245 243 240 233 231 229 221 254 242 238 256 263 263 268 277 299 268 271 266 286 290
96 88 111 90 51 53 24 344 338 6 346 249 230 219 229 235 223 219 213 223 227 227 244 246 242 245 243 240 240 234 224 221 228 207 234 239 255 228 225 242 258 315 314
76 58 44 58 53 48 38 337 332 351 343 341 323 289 264 259 262 250 243 229 232 236 238 245 255 250 237 246 257 249 242 238 234 200 238 231 254 228 218 266 239 221 248
54 57 42 45 57 50 48 312 341 354 351 347 318 328 339 303 301 275 244 242 248 249 245 239 232 246 239 231 245 257 253 243 232 218 231 254 238 258 201 244 245 255 267
39 39 30 27 13 22 22 357 352 349 359 336 321 323 314 307 311 324 314 261 252 256 249 245 250 253 245 234 242 258 265 265 251 239 233 235 241 243 258 115 275 271 290
15 23 14 14 21 21 360 338 302 320 297 305 300 287 294 312 22 341 305 266 266 260 263 257 241 247 250 249 238 245 257 264 264 270 262 254 242 246 217 216 241 246 261
15 15 5 358 351 352 332 329 320 319 320 315 301 317 12 33 30 22 27 29 356 327 323 319 328 51 24 326 279 255 262 299 298 287 273 270 263 244 237 215 214 217 230
14 16 6 2 359 354 348 337 333 337 338 336 354 359 7 49 60 51 63 60 332 346 327 304 297 317 309 296 285 239 250 276 252 265 269 264 265 260 251 235 219 221 229
28 15 6 5 7 4 5 3 5 7 8 352 359 345 320 326 316 254 357 357 335 322 304 305 306 299 288 281 264 266 261 231 233 236 254 260 257 261 266 258 235 236 244
43 29 10 18 357 353 359 4 8 11 10 10 8 360 341 332 327 325 312 327 325 321 327 319 296 286 275 268 292 275 251 247 242 247 261 268 268 261 255 247 249 249 247
20 11 11 10 3 355 4 356 1 14 46 349 349 330 343 347 338 320 309 311 321 329 315 291 301 306 304 304 299 291 284 280 269 256 259 269 268 265 259 255 246 249 240
18 353 347 354 351 356 346 336 1 336 336 338 308 233 341 283 324 344 341 327 313 306 280 285 292 290 292 289 292 296 292 286 288 285 263 257 265 270 270 263 247 238 247
2 355 12 12 358 355 351 342 335 338 341 337 339 340 340 316 348 352 352 343 323 272 281 267 262 278 293 289 278 282 304 320 324 318 307 288 273 262 258 261 253 240 249
19 11 7 349 348 346 344 341 338 339 334 335 341 331 323 335 345 343 350 331 339 297 288 274 267 271 272 1 0 346 339 336 325 320 315 302 295 282 269 257 250 248 249
32 0 11 4 358 358 351 344 340 339 335 328 329 328 325 325 331 326 321 316 312 314 308 294 287 344 5 11 356 341 320 311 312 310 310 312 304 302 277 271 266 253 226
31 40 46 27 9 0 351 348 344 334 325 320 322 322 326 330 324 322 319 310 300 296 328 333 343 350 352 340 328 312 307 310 308 305 305 303 307 297 302 275 259 254 237
128 91 74 62 23 355 345 335 321 321 322 319 314 312 315 317 311 306 308 305 304 300 296 289 275 265 297 310 303 308 307 303 301 298 296 298 302 311 311 308 307 276 262
150 147 140 109 44 353 333 318 311 318 317 316 312 311 313 309 303 300 301 297 292 292 289 281 273 268 263 263 280 286 289 295 296 293 293 296 295 293 295 293 289 279 257
157 155 156 156 177 266 266 253 301 318 315 315 314 315 316 309 308 305 301 298 294 294 289 290 285 282 276 269 262 269 275 277 284 286 289 289 288 287 287 287 286 282 267
171 173 183 207 236 261 288 293 294 309 312 311 310 305 305 305 307 303 297 295 294 295 292 288 286 276 280 283 278 270 260 266 270 275 283 280 278 277 275 274 275 272 268
184 189 195 216 236 249 274 286 285 302 315 315 309 303 302 302 298 299 303 302 299 300 301 303 300 291 286 283 277 274 270 267 266 266 271 264 263 266 262 266 269 273 267
192 195 202 209 225 229 231 247 252 268 298 302 310 305 303 303 299 300 303 300 295 294 294 290 288 287 286 287 285 279 276 274 274 265 257 258 257 257 252 253 259 259 260